Weather in Mamonovo

Russia / Novosibirsk Oblast     54°18′34″N   84°15′38″E
temp.,
°C
wind,
m/s
gust,
m/s
humid.,
%
clouds,
%
prec.,
mm/h
press.,
hPa
HPBL,
m
2 march, tue
tue201:00−2wsw4996100 3.8 1009520
04:00−4w4996100 0.4 1009458
07:00−8wnw3895100 1.2 1011313
10:00−11wnw359594 0.3 1014255
13:00−9w369295 0.4 1015416
16:00−9w3591100 0.1 1016537
19:00−10nw229699 0.3 101523
22:00−14nnw129784 0.1 101620
3 march, wed
wed301:00−14nnw119691 0.1 101720
04:00−15wnw119796 0.1 101720
07:00−15w119794 0.3 101920
10:00−13wsw129493 0.1 1020167
13:00−11ssw239095 0.2 1021408
16:00−9sw3591100 0.1 1021540
19:00−11ssw3695100 0.2 1023162
22:00−14ssw349798 0.1 102594
4 march, thu
thu401:00−15s4109797 0.1 1025236
04:00−15s41196100 0.1 1024278
07:00−15s51395100 0.1 1025395
10:00−11s61391100 0.1 1023560
13:00−7s71384100 0.1 1023750
16:00−5ssw71484100 0.0 1021803
19:00−6ssw71491100 0.2 1021676
22:00−6ssw71585100 0.0 1020559
5 march, fri
fri501:00−7ssw61685100 0.0 1019531
04:00−8ssw61682100 0.0 1017468
07:00−9s51482100 0.0 1016368
10:00−8s61478100 0.0 1014609
13:00−6s61395100 2.3 1013546
16:00−3sw51095100 1.7 1014739
19:00−4wsw61291100 2.3 1018704
22:00−6sw6149097 0.1 1022545
6 march, sat
sat601:00−8ssw7168996 0.1 1024701
04:00−8ssw81785100 0.0 1022844
07:00−8sw81784100 0.0 1022857
10:00−7sw81685100 0.0 1021905
13:00−6sw81587100 0.1 1021925
16:00−5sw81490100 0.2 1021911
19:00−6sw71492100 0.6 1021884
22:00−6sw71591100 0.3 1022769